TimePST,TemperatureF,Dew PointF,Humidity,Sea Level PressureIn,VisibilityMPH,Wind Direction,Wind SpeedMPH,Gust SpeedMPH,PrecipitationIn,Events,Conditions,WindDirDegrees,DateUTC
12:53 AM,32.0,28.9,88,29.98,10.0,NE,3.5,-,N/A,,Clear,50,2012-11-29 08:53:00
1:53 AM,30.9,28.0,89,29.99,10.0,ENE,4.6,-,N/A,,Clear,60,2012-11-29 09:53:00
2:53 AM,32.0,30.0,92,29.98,10.0,NNE,8.1,-,N/A,,Clear,30,2012-11-29 10:53:00
3:53 AM,32.0,28.9,88,29.97,10.0,NNE,6.9,-,N/A,,Clear,30,2012-11-29 11:53:00
4:53 AM,33.1,28.9,85,29.95,10.0,ENE,4.6,-,N/A,,Scattered Clouds,70,2012-11-29 12:53:00
5:53 AM,34.0,30.9,89,29.94,10.0,NNE,5.8,-,N/A,,Overcast,30,2012-11-29 13:53:00
6:53 AM,35.1,30.9,85,29.94,10.0,ENE,8.1,-,N/A,,Overcast,60,2012-11-29 14:53:00
7:53 AM,36.0,32.0,86,29.94,10.0,NE,11.5,-,N/A,,Scattered Clouds,50,2012-11-29 15:53:00
8:53 AM,39.0,34.0,82,29.93,10.0,East,8.1,-,N/A,,Clear,90,2012-11-29 16:53:00
9:53 AM,42.1,34.0,73,29.91,10.0,East,9.2,-,N/A,,Clear,90,2012-11-29 17:53:00
10:53 AM,45.0,35.1,68,29.89,10.0,East,6.9,-,N/A,,Clear,80,2012-11-29 18:53:00
11:53 AM,48.0,34.0,58,29.87,10.0,SE,12.7,-,N/A,,Clear,140,2012-11-29 19:53:00
12:53 PM,48.9,33.1,54,29.83,10.0,SE,11.5,-,N/A,,Mostly Cloudy,130,2012-11-29 20:53:00
1:53 PM,46.9,34.0,61,29.86,10.0,SE,6.9,-,N/A,,Overcast,130,2012-11-29 21:53:00
2:53 PM,48.0,34.0,58,29.82,10.0,SE,9.2,-,0.00,,Mostly Cloudy,140,2012-11-29 22:53:00
3:53 PM,45.0,33.1,63,29.81,10.0,SE,4.6,-,N/A,,Mostly Cloudy,140,2012-11-29 23:53:00
4:53 PM,44.1,34.0,68,29.79,10.0,East,8.1,-,N/A,,Overcast,100,2012-11-30 00:53:00
5:53 PM,44.1,35.1,71,29.78,10.0,ESE,10.4,-,N/A,,Overcast,110,2012-11-30 01:53:00
6:53 PM,41.0,33.1,73,29.76,10.0,East,3.5,-,N/A,,Overcast,90,2012-11-30 02:53:00
7:53 PM,46.9,32.0,56,29.75,10.0,SSE,10.4,-,0.00,,Overcast,160,2012-11-30 03:53:00
8:53 PM,45.0,32.0,60,29.74,10.0,ESE,10.4,-,N/A,,Mostly Cloudy,110,2012-11-30 04:53:00
9:53 PM,45.0,32.0,60,29.70,10.0,ESE,9.2,-,N/A,,Overcast,110,2012-11-30 05:53:00
10:53 PM,46.9,35.1,63,29.68,10.0,SSE,8.1,-,N/A,,Overcast,150,2012-11-30 06:53:00
11:53 PM,42.1,34.0,73,29.66,10.0,ENE,4.6,-,N/A,,Mostly Cloudy,60,2012-11-30 07:53:00